Regional Weather Roundup
Issued by NWS

Home | Current Version | Previous Version | Text Only | Print | Product List | Glossary Off
Versions: 1 2 3 4 5 6 7 8 9 10 11 12 13 14 15 16 17 18 19 20 21 22 23 24 25 26 27 28 29 30 31 32 33 34 35 36 37 38 39 40 41 42 43 44 45 46 47 48 49 50

106
ASUS45 KCYS 211710
RWRWY

WYOMING REGIONAL WEATHER ROUNDUP
NATIONAL WEATHER SERVICE CHEYENNE WY
1000 AM MST SUN JAN 21 2018

NOTE:  "FAIR" INDICATES FEW OR NO CLOUDS BELOW 12,000 FEET
WITH NO SIGNIFICANT WEATHER AND/OR OBSTRUCTIONS TO VISIBILITY.

WYZ001-211800-
YELLOWSTONE NATIONAL PARK

CITY           SKY/WX    TMP DP  RH WIND       PRES   REMARKS
LK YELLOWSTONE   N/A     -6  -7  95 CALM      30.07R
W YELLOWSTONE  NOT AVBL

$$
WYZ002>013-054>058-071-098>099-211800-
NORTHERN WYOMING

CITY           SKY/WX    TMP DP  RH WIND       PRES   REMARKS
JACKSON        FAIR      17   6  62 NE6       30.09R WCI   9
CODY           FAIR      29  13  51 SW6       30.06R WCI  23
GREYBULL       FAIR      23  18  81 CALM      30.08R
WORLAND        PTSUNNY   20  18  92 CALM      30.07R
SHERIDAN       FAIR      30  19  63 NW9       30.07R WCI  22
BUFFALO        CLOUDY    28  15  58 N8        30.03R WCI  20
GILLETTE       FAIR      26  19  74 NW6       30.01S WCI  19
HULETT         CLOUDY    28  23  80 CALM      30.02R
NEWCASTLE      FAIR      27  23  86 NW7       30.00S WCI  19

$$
WYZ014>020-022>026-101>103-211800-
CENTRAL WYOMING

CITY           SKY/WX    TMP DP  RH WIND       PRES   REMARKS
BIG PINEY      PTSUNNY   22   9  57 N10       29.98R WCI  11
PINEDALE       FAIR      16   9  73 NW8       29.98R WCI   5
DUBOIS         PTSUNNY   18  10  73 NW8       29.98R WCI   7
LANDER         CLOUDY    24  16  71 NW8       30.01R WCI  15
RIVERTON       CLOUDY    22  16  78 NW10      30.02R WCI  11
CASPER         CLOUDY    22  20  92 NW6       29.99R WCI  14
DOUGLAS        LGT SNOW  24  22  91 NW9       29.99R VSB 1   WCI  14

$$
WYZ021-027>030-104>119-211800-
SOUTHERN WYOMING

CITY           SKY/WX    TMP DP  RH WIND       PRES   REMARKS
EVANSTON       CLOUDY    15  11  83 W7        30.04R WCI   5
FORT BRIDGER   FLURRIES  19  15  85 W17G23    30.03R WCI   4
ROCK SPRINGS   LGT SNOW  16  13  88 W12       29.99R VSB 3/4 WCI   3
DIXON            N/A     22  15  74 N18G30    29.90R HAZE    WCI   8
RAWLINS        CLOUDY    19  14  81 N18       29.92R WCI   4
SARATOGA       CLOUDY    19  19 100 N15G22    29.89R FOG     WCI   5
LARAMIE        LGT SNOW  18  14  84 N12       29.83R FOG     WCI   5
CHEYENNE       SNOW      21  20  96 N15G22    29.85R VSB 1/2 WCI   8
TORRINGTON     LGT SNOW  27  25  92 N16       29.94R VSB 1   WCI  15

$$




USA.gov is the U.S. government's official web portal to all federal, state and local government web resources and services.